When you browse on this site, cookies collect data to enhance your experience and personalize the content and advertising you see.
Visit our Privacy Policy to learn more. By continuing to use the site, you agree to this use of cookies and data.
  • In Hungary
  • List of Countries
  • For 7 days
  • Water Temperature
  • Satellite Maps
  • Weather Map
  • News
  • Weather Widgets
  • user-avatar
    Login

    Hourly Weather Ife

    Today, 21 January, Monday

    Time Temperature Precipitation Wind Pressure Humidity
    00:00 +24°C° 0 mm 0 mps 736 mmHg 88%
    01:00 +24°C° 0 mm 0 mps 736 mmHg 91%
    02:00 +23°C° 0 mm 0 mps 736 mmHg 93%
    03:00 +23°C° 0 mm 0 mps 735 mmHg 96%
    04:00 +23°C° 0 mm 0 mps 735 mmHg 96%
    05:00 +23°C° 0 mm 0 mps 736 mmHg 97%
    06:00 +23°C° 0 mm 0 mps 736 mmHg 98%
    07:00 +25°C° 0 mm 0 mps 736 mmHg 85%
    08:00 +28°C° 0 mm 0 mps 737 mmHg 72%
    09:00 +32°C° 0 mm 1 mps 737 mmHg 59%
    10:00 +35°C° 0 mm 1 mps 737 mmHg 48%
    11:00 +39°C° 0 mm 1 mps 737 mmHg 36%
    12:00 +38°C° 0 mm 0 mps 736 mmHg 25%
    13:00 +38°C° 0 mm 0 mps 736 mmHg 24%
    14:00 +38°C° 0 mm 0 mps 735 mmHg 24%
    15:00 +38°C° 0 mm 0 mps 734 mmHg 23%
    16:00 +39°C° 0 mm 1 mps 734 mmHg 28%
    17:00 +35°C° 0 mm 1 mps 734 mmHg 32%
    18:00 +33°C° 0 mm 1 mps 734 mmHg 37%
    19:00 +32°C° 0 mm 1 mps 735 mmHg 48%
    20:00 +30°C° 0 mm 1 mps 735 mmHg 58%
    21:00 +29°C° 0 mm 1 mps 735 mmHg 69%
    22:00 +28°C° 0 mm 1 mps 735 mmHg 72%
    23:00 +27°C° 0 mm 1 mps 735 mmHg 75%

    Tomorrow, 22 January, Tuesday

    Time Temperature Precipitation Wind Pressure Humidity
    00:00 +27°C° 0 mm 1 mps 735 mmHg 79%
    01:00 +26°C° 0 mm 1 mps 735 mmHg 81%
    02:00 +24°C° 0 mm 0 mps 735 mmHg 84%
    03:00 +23°C° 0 mm 0 mps 734 mmHg 87%
    04:00 +23°C° 0 mm 0 mps 735 mmHg 89%
    05:00 +23°C° 0 mm 0 mps 735 mmHg 92%
    06:00 +23°C° 0 mm 0 mps 735 mmHg 94%
    07:00 +27°C° 0 mm 1 mps 736 mmHg 83%
    08:00 +29°C° 0 mm 1 mps 737 mmHg 72%
    09:00 +32°C° 0 mm 1 mps 737 mmHg 61%
    10:00 +34°C° 0 mm 1 mps 737 mmHg 51%
    11:00 +36°C° 0 mm 1 mps 736 mmHg 41%
    12:00 +39°C° 0 mm 1 mps 736 mmHg 32%
    13:00 +39°C° 0 mm 1 mps 735 mmHg 30%
    14:00 +39°C° 0 mm 1 mps 734 mmHg 28%
    15:00 +40°C° 0 mm 1 mps 733 mmHg 26%
    16:00 +37°C° 0 mm 1 mps 733 mmHg 30%
    17:00 +35°C° 0 mm 1 mps 734 mmHg 34%
    18:00 +33°C° 0 mm 1 mps 734 mmHg 37%
    19:00 +32°C° 0 mm 1 mps 734 mmHg 51%
    20:00 +30°C° 0 mm 1 mps 734 mmHg 64%
    21:00 +29°C° 0 mm 2 mps 735 mmHg 77%
    22:00 +28°C° 0 mm 1 mps 735 mmHg 82%
    23:00 +27°C° 0 mm 1 mps 735 mmHg 86%

    Day after tomorrow, 23 January, Wednesday

    Time Temperature Precipitation Wind Pressure Humidity
    00:00 +27°C° 0 mm 1 mps 735 mmHg 91%
    01:00 +27°C° 0 mm 1 mps 735 mmHg 90%
    02:00 +27°C° 0 mm 1 mps 734 mmHg 88%
    03:00 +27°C° 0 mm 2 mps 734 mmHg 87%
    04:00 +27°C° 0.1 mm 1 mps 734 mmHg 87%
    05:00 +27°C° 0.1 mm 1 mps 735 mmHg 86%
    06:00 +27°C° 0.1 mm 1 mps 735 mmHg 85%
    07:00 +28°C° 0.1 mm 1 mps 736 mmHg 80%
    08:00 +29°C° 0.1 mm 1 mps 736 mmHg 75%
    09:00 +30°C° 0.1 mm 1 mps 737 mmHg 70%
    10:00 +32°C° 0 mm 1 mps 736 mmHg 61%
    11:00 +34°C° 0 mm 1 mps 736 mmHg 52%
    12:00 +35°C° 0 mm 1 mps 735 mmHg 43%
    13:00 +36°C° 0 mm 1 mps 735 mmHg 39%
    14:00 +37°C° 0 mm 1 mps 734 mmHg 35%
    15:00 +39°C° 0 mm 1 mps 733 mmHg 31%
    16:00 +36°C° 0 mm 1 mps 733 mmHg 35%
    17:00 +34°C° 0 mm 1 mps 733 mmHg 39%
    18:00 +33°C° 0 mm 1 mps 733 mmHg 43%
    19:00 +31°C° 0 mm 2 mps 734 mmHg 55%
    20:00 +30°C° 0 mm 2 mps 734 mmHg 68%
    21:00 +28°C° 0 mm 2 mps 735 mmHg 80%
    22:00 +28°C° 0 mm 2 mps 735 mmHg 84%
    23:00 +27°C° 0 mm 1 mps 734 mmHg 87%

    24 January, Thursday

    Time Temperature Precipitation Wind Pressure Humidity
    00:00 +27°C° 0 mm 1 mps 734 mmHg 91%
    01:00 +27°C° 0 mm 1 mps 734 mmHg 90%
    02:00 +27°C° 0 mm 1 mps 733 mmHg 90%
    03:00 +27°C° 0 mm 1 mps 733 mmHg 89%
    04:00 +27°C° 0.1 mm 1 mps 734 mmHg 89%
    05:00 +27°C° 0.1 mm 1 mps 734 mmHg 89%
    06:00 +27°C° 0.1 mm 1 mps 734 mmHg 89%
    07:00 +28°C° 0.3 mm 1 mps 735 mmHg 80%
    08:00 +30°C° 0.3 mm 1 mps 736 mmHg 71%
    09:00 +32°C° 0.3 mm 1 mps 736 mmHg 62%
    10:00 +34°C° 0 mm 1 mps 736 mmHg 54%
    11:00 +35°C° 0 mm 1 mps 735 mmHg 46%
    12:00 +37°C° 0 mm 1 mps 735 mmHg 37%
    13:00 +36°C° 0 mm 1 mps 734 mmHg 38%
    14:00 +36°C° 0 mm 1 mps 733 mmHg 38%
    15:00 +36°C° 0 mm 2 mps 732 mmHg 39%
    16:00 +35°C° 0 mm 2 mps 732 mmHg 43%
    17:00 +34°C° 0 mm 2 mps 733 mmHg 47%
    18:00 +32°C° 0 mm 2 mps 733 mmHg 51%
    19:00 +31°C° 0 mm 2 mps 734 mmHg 58%
    20:00 +29°C° 0 mm 2 mps 734 mmHg 65%
    21:00 +28°C° 0 mm 2 mps 735 mmHg 73%
    22:00 +28°C° 0.1 mm 2 mps 735 mmHg 77%
    23:00 +27°C° 0.1 mm 1 mps 734 mmHg 82%

    25 January, Friday

    Time Temperature Precipitation Wind Pressure Humidity
    00:00 +26°C° 0.1 mm 1 mps 734 mmHg 86%
    01:00 +26°C° 0 mm 1 mps 734 mmHg 88%
    02:00 +26°C° 0 mm 1 mps 734 mmHg 90%
    03:00 +25°C° 0 mm 1 mps 733 mmHg 92%
    04:00 +25°C° 0 mm 1 mps 734 mmHg 91%
    05:00 +26°C° 0 mm 1 mps 734 mmHg 91%
    06:00 +26°C° 0 mm 1 mps 734 mmHg 90%
    07:00 +27°C° 0 mm 1 mps 735 mmHg 85%
    08:00 +28°C° 0 mm 1 mps 736 mmHg 79%
    09:00 +29°C° 0 mm 1 mps 736 mmHg 73%
    10:00 +31°C° 0 mm 1 mps 736 mmHg 66%
    11:00 +32°C° 0 mm 1 mps 735 mmHg 59%
    12:00 +34°C° 0 mm 1 mps 735 mmHg 52%
    13:00 +35°C° 0 mm 1 mps 734 mmHg 48%
    14:00 +36°C° 0 mm 1 mps 733 mmHg 43%
    15:00 +37°C° 0 mm 1 mps 733 mmHg 39%
    16:00 +35°C° 0 mm 1 mps 733 mmHg 43%
    17:00 +33°C° 0 mm 1 mps 733 mmHg 48%
    18:00 +32°C° 0 mm 1 mps 733 mmHg 52%
    19:00 +30°C° 0.4 mm 1 mps 734 mmHg 62%
    20:00 +29°C° 0.4 mm 1 mps 734 mmHg 72%
    21:00 +28°C° 0.4 mm 2 mps 735 mmHg 82%
    22:00 +27°C° 0 mm 1 mps 735 mmHg 85%
    23:00 +27°C° 0 mm 1 mps 734 mmHg 88%

    26 January, Saturday

    Time Temperature Precipitation Wind Pressure Humidity
    00:00 +26°C° 0 mm 1 mps 734 mmHg 91%
    01:00 +24°C° 0 mm 0 mps 734 mmHg 93%
    02:00 +24°C° 0 mm 0 mps 734 mmHg 94%
    03:00 +23°C° 0 mm 0 mps 733 mmHg 96%
    04:00 +23°C° 0 mm 0 mps 734 mmHg 96%
    05:00 +23°C° 0 mm 0 mps 734 mmHg 97%
    06:00 +23°C° 0 mm 0 mps 735 mmHg 97%
    07:00 +26°C° 0 mm 1 mps 735 mmHg 89%
    08:00 +28°C° 0 mm 1 mps 736 mmHg 82%
    09:00 +30°C° 0 mm 1 mps 736 mmHg 74%
    10:00 +32°C° 0 mm 1 mps 736 mmHg 63%
    11:00 +35°C° 0 mm 1 mps 736 mmHg 52%
    12:00 +37°C° 0 mm 1 mps 735 mmHg 41%
    13:00 +39°C° 0 mm 1 mps 735 mmHg 36%
    14:00 +40°C° 0 mm 1 mps 734 mmHg 32%
    15:00 +41°C° 0 mm 1 mps 733 mmHg 27%
    16:00 +37°C° 0 mm 1 mps 733 mmHg 33%
    17:00 +36°C° 0 mm 2 mps 733 mmHg 39%
    18:00 +34°C° 0 mm 2 mps 733 mmHg 46%
    19:00 +31°C° 0 mm 2 mps 734 mmHg 59%
    20:00 +30°C° 0 mm 2 mps 734 mmHg 71%
    21:00 +28°C° 0 mm 2 mps 735 mmHg 84%
    22:00 +28°C° 0 mm 2 mps 735 mmHg 86%
    23:00 +27°C° 0 mm 1 mps 734 mmHg 87%
    Show more